Date String (YYYY-MM-DD hh:mm:ss) UTC,Instrument flags,Ambient pressure (hPa),Sample flow (lpm),Bypass flow (lpm),Sample temperature (°C),Ambient temperature (°C),ASC tube jacket temperature (°C),LED temperature (°C),Box temperature (°C),Sample RH (%),Span deviation,Mass concentration (μg/m³),Mass concentration (μg/m³),Mass concentration (μg/m³)
DateTimeUTC,F1_M11,P_M11,Q1_M11,Q2_M11,T1_M11,T2_M11,T3_M11,T4_M11,T5_M11,U1_M11,ZSPAN_M11,X0_M11,X2_M11,X1_M11
2022-02-11 06:00:00,,0818.6,5.00,0.00,22.7,21.7,00.0,31.8,24.6,10.1,0000.0,0003.00,0000.86,0000.51
2022-02-11 06:01:00,,0818.7,5.00,0.00,22.7,21.7,00.0,31.8,24.6,10.3,0000.0,0003.03,0000.87,0000.51
2022-02-11 06:02:00,,0818.4,4.99,0.00,22.7,21.7,00.0,31.8,24.5,10.2,0000.0,0003.04,0000.86,0000.50
2022-02-11 06:03:00,,0818.5,5.00,0.00,22.7,21.7,00.0,31.8,24.5,10.1,0000.0,0002.69,0000.86,0000.51
2022-02-11 06:04:00,,0818.8,5.02,0.00,22.7,21.6,00.0,31.7,24.5,09.9,0000.0,0002.58,0000.84,0000.51
2022-02-11 06:05:00,,0818.8,4.98,0.00,22.7,21.7,00.0,31.7,24.5,10.1,0000.0,0002.47,0000.80,0000.50
2022-02-11 06:06:00,,0818.7,5.02,0.00,22.7,21.7,00.0,31.7,24.4,10.1,0000.0,0002.38,0000.77,0000.49
2022-02-11 06:07:00,,0818.5,4.99,0.00,22.7,21.8,00.0,31.7,24.4,10.0,0000.0,0002.39,0000.77,0000.49
2022-02-11 06:08:00,,0818.7,5.00,0.00,22.6,21.7,00.0,31.7,24.4,10.0,0000.0,0002.32,0000.77,0000.49
2022-02-11 06:09:00,,0818.8,5.00,0.00,22.6,21.7,00.0,31.7,24.4,09.7,0000.0,0002.25,0000.74,0000.48
2022-02-11 06:10:00,,0818.6,5.01,0.00,22.6,21.7,00.0,31.7,24.4,09.9,0000.0,0002.20,0000.71,0000.47
2022-02-11 06:11:00,,0818.5,5.00,0.00,22.6,21.7,00.0,31.7,24.4,10.2,0000.0,0001.51,0000.69,0000.48
2022-02-11 06:12:00,,0818.7,5.00,0.00,22.6,21.6,00.0,31.7,24.4,10.1,0000.0,0001.45,0000.67,0000.48
2022-02-11 06:13:00,,0818.6,5.01,0.00,22.6,21.6,00.0,31.7,24.4,10.1,0000.0,0001.41,0000.71,0000.49
2022-02-11 06:14:00,,0818.5,4.99,0.00,22.6,21.6,00.0,31.7,24.4,10.0,0000.0,0002.18,0000.70,0000.48
2022-02-11 06:15:00,,0818.6,4.99,0.00,22.6,21.6,00.0,31.6,24.4,10.2,0000.0,0002.70,0000.68,0000.47
2022-02-11 06:16:00,,0818.6,5.00,0.00,22.6,21.6,00.0,31.6,24.3,10.3,0000.0,0002.75,0000.68,0000.47
2022-02-11 06:17:00,,0818.4,4.99,0.00,22.6,21.6,00.0,31.6,24.3,10.3,0000.0,0002.78,0000.67,0000.48
2022-02-11 06:18:00,,0818.4,4.99,0.00,22.6,21.7,00.0,31.6,24.3,10.3,0000.0,0002.87,0000.68,0000.48
2022-02-11 06:19:00,,0818.4,5.00,0.00,22.5,21.7,00.0,31.6,24.3,10.1,0000.0,0002.88,0000.71,0000.48
2022-02-11 06:20:00,,0818.2,5.01,0.00,22.5,21.6,00.0,31.6,24.3,10.3,0000.0,0002.88,0000.72,0000.49
2022-02-11 06:21:00,,0818.1,5.00,0.00,22.5,21.6,00.0,31.6,24.3,10.0,0000.0,0002.94,0000.74,0000.49
2022-02-11 06:22:00,,0818.3,5.00,0.00,22.5,21.5,00.0,31.5,24.3,10.2,0000.0,0003.06,0000.77,0000.49
2022-02-11 06:23:00,,0818.4,4.99,0.00,22.5,21.5,00.0,31.5,24.2,10.3,0000.0,0002.97,0000.78,0000.49
2022-02-11 06:24:00,,0818.4,4.99,0.00,22.5,21.5,00.0,31.5,24.2,10.3,0000.0,0002.79,0000.74,0000.49
2022-02-11 06:25:00,,0818.1,5.01,0.00,22.5,21.5,00.0,31.5,24.2,10.3,0000.0,0002.41,0000.75,0000.49
2022-02-11 06:26:00,,0818.0,4.99,0.00,22.4,21.5,00.0,31.5,24.2,10.2,0000.0,0001.50,0000.78,0000.50
2022-02-11 06:27:00,,0818.0,4.99,0.00,22.4,21.4,00.0,31.5,24.2,10.3,0000.0,0001.55,0000.78,0000.50
2022-02-11 06:28:00,,0817.8,5.00,0.00,22.4,21.4,00.0,31.5,24.2,10.2,0000.0,0001.63,0000.81,0000.50
2022-02-11 06:29:00,,0817.8,5.00,0.00,22.4,21.3,00.0,31.5,24.2,10.2,0000.0,0001.61,0000.82,0000.51
2022-02-11 06:30:00,,0817.9,5.01,0.00,22.4,21.3,00.0,31.4,24.1,10.3,0000.0,0001.58,0000.81,0000.51
2022-02-11 06:31:00,,0818.0,4.98,0.00,22.4,21.3,00.0,31.4,24.1,10.3,0000.0,0001.62,0000.81,0000.52
2022-02-11 06:32:00,,0818.2,5.00,0.00,22.4,21.3,00.0,31.4,24.1,10.2,0000.0,0001.67,0000.83,0000.53
2022-02-11 06:33:00,,0818.1,5.01,0.00,22.4,21.3,00.0,31.4,24.1,10.2,0000.0,0001.63,0000.83,0000.53
2022-02-11 06:34:00,,0818.1,4.99,0.00,22.3,21.2,00.0,31.4,24.1,10.2,0000.0,0001.66,0000.85,0000.53
2022-02-11 06:35:00,,0818.0,5.02,0.00,22.3,21.2,00.0,31.4,24.1,10.2,0000.0,0001.67,0000.85,0000.53
2022-02-11 06:36:00,,0818.1,4.99,0.00,22.3,21.2,00.0,31.4,24.1,10.1,0000.0,0001.78,0000.89,0000.53
2022-02-11 06:37:00,,0817.9,5.02,0.00,22.3,21.2,00.0,31.4,24.1,10.2,0000.0,0001.77,0000.88,0000.52
2022-02-11 06:38:00,,0818.1,5.00,0.00,22.3,21.2,00.0,31.3,24.1,10.3,0000.0,0001.82,0000.89,0000.53
2022-02-11 06:39:00,,0818.0,5.01,0.00,22.3,21.2,00.0,31.3,24.1,10.5,0000.0,0001.81,0000.86,0000.53
2022-02-11 06:40:00,,0818.2,4.99,0.00,22.3,21.2,00.0,31.3,24.1,10.3,0000.0,0002.10,0000.88,0000.53
2022-02-11 06:41:00,,0818.4,5.00,0.00,22.3,21.2,00.0,31.3,24.1,10.2,0000.0,0002.03,0000.86,0000.53
2022-02-11 06:42:00,,0818.3,5.01,0.00,22.3,21.2,00.0,31.3,24.0,10.2,0000.0,0001.95,0000.87,0000.53
2022-02-11 06:43:00,,0818.3,5.00,0.00,22.3,21.2,00.0,31.3,24.0,10.2,0000.0,0001.96,0000.86,0000.53
2022-02-11 06:44:00,,0818.3,4.97,0.00,22.2,21.2,00.0,31.3,24.0,10.2,0000.0,0001.97,0000.87,0000.54
2022-02-11 06:45:00,,0818.3,5.01,0.00,22.2,21.2,00.0,31.3,24.0,10.3,0000.0,0001.88,0000.85,0000.55
2022-02-11 06:46:00,,0818.3,5.00,0.00,22.2,21.2,00.0,31.3,24.0,10.2,0000.0,0001.92,0000.85,0000.55
2022-02-11 06:47:00,,0818.3,5.00,0.00,22.2,21.2,00.0,31.2,23.9,10.3,0000.0,0002.93,0000.85,0000.55
2022-02-11 06:48:00,,0818.5,5.01,0.00,22.2,21.2,00.0,31.2,23.9,10.4,0000.0,0003.24,0000.88,0000.55
2022-02-11 06:49:00,,0818.5,4.99,0.00,22.2,21.2,00.0,31.2,23.9,10.4,0000.0,0003.20,0000.89,0000.56
2022-02-11 06:50:00,,0818.3,5.01,0.00,22.1,21.2,00.0,31.2,23.9,10.5,0000.0,0003.13,0000.88,0000.55
2022-02-11 06:51:00,,0818.5,4.99,0.00,22.1,21.2,00.0,31.2,23.9,10.1,0000.0,0002.78,0000.87,0000.54
2022-02-11 06:52:00,,0818.8,5.01,0.00,22.1,21.2,00.0,31.2,23.9,10.1,0000.0,0003.17,0000.91,0000.55
2022-02-11 06:53:00,,0818.7,5.00,0.00,22.1,21.2,00.0,31.2,24.0,10.2,0000.0,0003.36,0000.93,0000.54
2022-02-11 06:54:00,,0818.8,5.00,0.00,22.1,21.2,00.0,31.2,23.9,10.2,0000.0,0004.37,0000.89,0000.53
2022-02-11 06:55:00,,0818.8,5.00,0.00,22.1,21.2,00.0,31.2,23.9,09.9,0000.0,0004.85,0000.88,0000.53
2022-02-11 06:56:00,,0818.8,5.00,0.00,22.1,21.3,00.0,31.2,23.9,10.1,0000.0,0004.88,0000.87,0000.52
2022-02-11 06:57:00,,0818.7,5.00,0.00,22.1,21.3,00.0,31.2,23.9,10.3,0000.0,0004.83,0000.86,0000.52
2022-02-11 06:58:00,,0818.7,4.98,0.00,22.2,21.3,00.0,31.2,23.9,10.0,0000.0,0004.06,0000.81,0000.53
2022-02-11 06:59:00,,0818.7,5.01,0.00,22.1,21.3,00.0,31.2,23.9,10.0,0000.0,0003.37,0000.78,0000.53
